| time (UTC) | temp C | wind direction | speed KPH | gust KPH | rain 1hr cm | rain 24hr cm | rain mn cm | humidity % | barometer mb |
| 20260508010004 | 10 | 0 | 0.0 | 0.0 | 0.00 | 0.48 | 0.43 | 95 | 1010.8 |
| 20260508004504 | 11 | 0 | 0.0 | 0.0 | 0.00 | 0.48 | 0.43 | 94 | 1010.7 |
| 20260508003005 | 11 | 0 | 0.0 | 0.0 | 0.00 | 0.48 | 0.43 | 94 | 1010.6 |
| 20260508001504 | 11 | 0 | 0.0 | 0.0 | 0.00 | 0.48 | 0.43 | 93 | 1010.3 |
| 20260508000004 | 12 | 0 | 0.0 | 0.0 | 0.00 | 0.48 | 0.43 | 93 | 1010.1 |
| 20260507234504 | 12 | 60 | 0.0 | 3.2 | 0.00 | 0.48 | 0.43 | 94 | 1010.1 |
| 20260507233005 | 12 | 66 | 0.0 | 3.2 | 0.00 | 0.48 | 0.43 | 94 | 1009.9 |
| 20260507231505 | 12 | 117 | 0.0 | 3.2 | 0.00 | 0.48 | 0.43 | 94 | 1009.7 |
| 20260507230004 | 12 | 0 | 0.0 | 0.0 | 0.00 | 0.48 | 0.43 | 94 | 1009.7 |
| 20260507224504 | 12 | 101 | 0.0 | 3.2 | 0.00 | 0.48 | 0.43 | 93 | 1010.1 |
| 20260507223004 | 12 | 103 | 0.0 | 3.2 | 0.00 | 0.48 | 0.43 | 93 | 1010.1 |
| 20260507221504 | 12 | 112 | 0.0 | 3.2 | 0.00 | 0.48 | 0.43 | 93 | 1010.0 |
| 20260507220004 | 12 | 131 | 0.0 | 3.2 | 0.00 | 0.48 | 0.43 | 92 | 1009.9 |
| 20260507214504 | 13 | 231 | 0.0 | 3.2 | 0.05 | 0.48 | 0.43 | 92 | 1009.6 |
| 20260507213004 | 13 | 0 | 0.0 | 0.0 | 0.05 | 0.48 | 0.43 | 92 | 1009.3 |
| 20260507211525 | 13 | 244 | 0.0 | 3.2 | 0.05 | 0.48 | 0.43 | 90 | 1009.4 |
| 20260507210004 | 13 | 0 | 0.0 | 0.0 | 0.05 | 0.48 | 0.43 | 91 | 1009.3 |
| 20260507204504 | 13 | 0 | 0.0 | 0.0 | 0.00 | 0.41 | 0.36 | 89 | 1009.3 |
| 20260507203004 | 13 | 71 | 0.0 | 3.2 | 0.00 | 0.41 | 0.36 | 89 | 1009.4 |
| 20260507201506 | 13 | 117 | 0.0 | 3.2 | 0.00 | 0.41 | 0.36 | 89 | 1009.9 |
| 20260507200031 | 13 | 74 | 0.0 | 3.2 | 0.00 | 0.41 | 0.36 | 89 | 1009.7 |
| 20260507194504 | 13 | 78 | 0.0 | 3.2 | 0.00 | 0.41 | 0.36 | 89 | 1009.7 |
| 20260507193004 | 13 | 63 | 0.0 | 6.4 | 0.00 | 0.41 | 0.36 | 89 | 1009.7 |
| 20260507191503 | 13 | 54 | 0.0 | 3.2 | 0.00 | 0.41 | 0.36 | 90 | 1009.8 |
| 20260507190005 | 13 | 326 | 0.0 | 8.0 | 0.00 | 0.41 | 0.36 | 88 | 1009.9 |
| 20260507184524 | 13 | 68 | 0.0 | 3.2 | 0.00 | 0.41 | 0.36 | 88 | 1009.8 |
| 20260507183003 | 13 | 327 | 0.0 | 6.4 | 0.00 | 0.41 | 0.36 | 87 | 1009.9 |
| 20260507181503 | 13 | 51 | 0.0 | 6.4 | 0.00 | 0.41 | 0.36 | 88 | 1009.8 |
| 20260507180004 | 13 | 71 | 0.0 | 6.4 | 0.00 | 0.41 | 0.36 | 88 | 1009.8 |
| 20260507174503 | 13 | 63 | 0.0 | 3.2 | 0.00 | 0.41 | 0.36 | 91 | 1009.6 |
| 20260507173004 | 13 | 68 | 0.0 | 3.2 | 0.00 | 0.46 | 0.36 | 90 | 1009.6 |
| 20260507171524 | 13 | 58 | 0.0 | 3.2 | 0.00 | 0.46 | 0.36 | 91 | 1009.8 |
| 20260507170003 | 13 | 72 | 0.0 | 11.3 | 0.00 | 0.46 | 0.36 | 90 | 1010.1 |
| 20260507164524 | 13 | 66 | 0.0 | 14.5 | 0.00 | 0.46 | 0.36 | 91 | 1010.1 |
| 20260507163003 | 13 | 71 | 0.0 | 6.4 | 0.00 | 0.46 | 0.36 | 92 | 1010.2 |
| 20260507161503 | 13 | 80 | 0.0 | 3.2 | 0.00 | 0.46 | 0.36 | 92 | 1010.6 |
| 20260507160004 | 13 | 52 | 0.0 | 3.2 | 0.00 | 0.46 | 0.36 | 94 | 1010.7 |
| 20260507154506 | 13 | 58 | 0.0 | 3.2 | 0.00 | 0.46 | 0.36 | 95 | 1011.0 |
| 20260507153006 | 13 | 80 | 0.0 | 6.4 | 0.00 | 0.46 | 0.36 | 95 | 1010.5 |
| 20260507151506 | 13 | 70 | 0.0 | 6.4 | 0.00 | 0.51 | 0.36 | 96 | 1010.2 |
| 20260507150006 | 13 | 82 | 0.0 | 6.4 | 0.00 | 0.58 | 0.36 | 97 | 1010.3 |
| 20260507144506 | 13 | 64 | 0.0 | 3.2 | 0.00 | 0.74 | 0.36 | 97 | 1010.0 |
| 20260507143006 | 12 | 71 | 0.0 | 6.4 | 0.00 | 0.81 | 0.36 | 97 | 1010.1 |
| 20260507141506 | 12 | 99 | 0.0 | 6.4 | 0.00 | 0.86 | 0.36 | 97 | 1010.3 |
| 20260507140006 | 12 | 69 | 0.0 | 6.4 | 0.00 | 0.89 | 0.36 | 97 | 1010.0 |
| 20260507134506 | 13 | 27 | 0.0 | 6.4 | 0.00 | 0.89 | 0.36 | 97 | 1010.5 |
| 20260507133027 | 13 | 65 | 3.2 | 8.0 | 0.00 | 0.89 | 0.36 | 96 | 1010.4 |
| 20260507131527 | 14 | 68 | 0.0 | 8.0 | 0.00 | 0.89 | 0.36 | 96 | 1010.8 |
| 20260507130006 | 15 | 52 | 0.0 | 8.0 | 0.00 | 0.89 | 0.36 | 97 | 1010.5 |
| 20260507124527 | 16 | 59 | 3.2 | 8.0 | 0.00 | 0.89 | 0.36 | 97 | 1009.3 |
| 20260507123006 | 17 | 0 | 0.0 | 0.0 | 0.05 | 0.89 | 0.36 | 98 | 1009.3 |
| 20260507121506 | 17 | 14 | 0.0 | 3.2 | 0.05 | 0.89 | 0.36 | 98 | 1009.2 |
| 20260507120006 | 17 | 0 | 0.0 | 0.0 | 0.05 | 0.89 | 0.36 | 98 | 1009.2 |
| 20260507114506 | 17 | 0 | 0.0 | 0.0 | 0.05 | 0.89 | 0.36 | 98 | 1009.1 |
| 20260507113006 | 17 | 0 | 0.0 | 0.0 | 0.00 | 0.84 | 0.30 | 98 | 1009.2 |
| 20260507111507 | 17 | 0 | 0.0 | 0.0 | 0.00 | 0.84 | 0.30 | 98 | 1009.3 |
| 20260507110006 | 17 | 0 | 0.0 | 0.0 | 0.00 | 0.84 | 0.30 | 98 | 1009.2 |
| 20260507104506 | 17 | 0 | 0.0 | 0.0 | 0.03 | 0.84 | 0.30 | 97 | 1008.9 |
| 20260507103006 | 17 | 360 | 0.0 | 3.2 | 0.05 | 0.84 | 0.30 | 97 | 1008.6 |
| 20260507101507 | 17 | 0 | 0.0 | 0.0 | 0.05 | 0.84 | 0.30 | 97 | 1008.4 |
| 20260507100006 | 17 | 0 | 0.0 | 0.0 | 0.05 | 0.84 | 0.30 | 97 | 1008.7 |
| 20260507094505 | 17 | 0 | 0.0 | 0.0 | 0.03 | 0.81 | 0.28 | 97 | 1008.2 |
| 20260507093005 | 17 | 0 | 0.0 | 0.0 | 0.03 | 0.79 | 0.25 | 97 | 1009.1 |
| 20260507091505 | 17 | 0 | 0.0 | 0.0 | 0.03 | 0.79 | 0.25 | 97 | 1008.8 |
| 20260507090006 | 17 | 0 | 0.0 | 0.0 | 0.03 | 0.79 | 0.25 | 97 | 1008.5 |
| 20260507084526 | 17 | 0 | 0.0 | 0.0 | 0.03 | 0.79 | 0.25 | 97 | 1009.3 |
| 20260507083005 | 17 | 0 | 0.0 | 0.0 | 0.00 | 0.76 | 0.23 | 97 | 1009.0 |
| 20260507081505 | 17 | 0 | 0.0 | 0.0 | 0.00 | 0.76 | 0.23 | 97 | 1008.9 |
| 20260507080005 | 17 | 0 | 0.0 | 0.0 | 0.00 | 0.76 | 0.23 | 97 | 1008.1 |
| 20260507074505 | 17 | 0 | 0.0 | 0.0 | 0.00 | 0.76 | 0.23 | 97 | 1008.2 |
| 20260507073005 | 17 | 0 | 0.0 | 0.0 | 0.00 | 0.76 | 0.23 | 97 | 1008.0 |
| 20260507071526 | 17 | 0 | 0.0 | 0.0 | 0.00 | 0.76 | 0.23 | 97 | 1008.1 |
| 20260507070009 | 17 | 138 | 0.0 | 3.2 | 0.00 | 0.76 | 0.23 | 97 | 1008.1 |
| 20260507064505 | 18 | 153 | 0.0 | 3.2 | 0.00 | 0.76 | 0.23 | 97 | 1008.2 |
| 20260507063026 | 18 | 64 | 0.0 | 3.2 | 0.00 | 0.76 | 0.23 | 97 | 1008.8 |
| 20260507061505 | 18 | 303 | 0.0 | 6.4 | 0.00 | 0.76 | 0.23 | 97 | 1009.1 |
| 20260507060005 | 18 | 286 | 0.0 | 3.2 | 0.00 | 0.76 | 0.23 | 97 | 1009.1 |
| 20260507054505 | 17 | 286 | 0.0 | 3.2 | 0.00 | 0.76 | 0.23 | 97 | 1009.4 |
| 20260507053026 | 17 | 0 | 0.0 | 0.0 | 0.00 | 0.76 | 0.23 | 97 | 1009.7 |
| 20260507051505 | 17 | 0 | 0.0 | 0.0 | 0.08 | 0.76 | 0.23 | 96 | 1009.2 |
| 20260507050005 | 18 | 0 | 0.0 | 0.0 | 0.23 | 0.76 | 0.23 | 96 | 1009.4 |
| 20260507044505 | 18 | 77 | 0.0 | 3.2 | 0.28 | 0.76 | 0.23 | 96 | 1009.9 |
| 20260507043005 | 18 | 0 | 0.0 | 0.0 | 0.28 | 0.76 | 0.23 | 95 | 1009.8 |
| 20260507041526 | 18 | 0 | 0.0 | 0.0 | 0.20 | 0.66 | 0.15 | 95 | 1010.7 |
| 20260507034505 | 19 | 284 | 0.0 | 3.2 | 0.00 | 0.48 | 0.48 | 91 | 1010.9 |
| 20260507033005 | 19 | 13 | 0.0 | 3.2 | 0.00 | 0.48 | 0.48 | 90 | 1010.4 |
| 20260507031504 | 19 | 0 | 0.0 | 0.0 | 0.00 | 0.48 | 0.48 | 90 | 1009.8 |
| 20260507030004 | 19 | 0 | 0.0 | 0.0 | 0.00 | 0.48 | 0.48 | 89 | 1009.7 |
| 20260507024505 | 19 | 0 | 0.0 | 0.0 | 0.00 | 0.48 | 0.48 | 89 | 1009.8 |
| 20260507023005 | 18 | 0 | 0.0 | 0.0 | 0.00 | 0.48 | 0.48 | 89 | 1009.6 |
| 20260507021504 | 18 | 333 | 0.0 | 3.2 | 0.00 | 0.48 | 0.48 | 89 | 1009.4 |
| 20260507020025 | 19 | 0 | 0.0 | 0.0 | 0.00 | 0.48 | 0.48 | 89 | 1009.4 |
| 20260507014504 | 19 | 334 | 0.0 | 3.2 | 0.00 | 0.48 | 0.48 | 88 | 1009.0 |
| 20260507013004 | 19 | 0 | 0.0 | 0.0 | 0.00 | 0.48 | 0.48 | 88 | 1009.1 |
| 20260507011504 | 20 | 0 | 0.0 | 0.0 | 0.00 | 0.48 | 0.48 | 88 | 1009.4 |